GW2041 Weather Reports


Display with metric or nautical units.
time (UTC)temp
F
wind
direction
speed
MPH
gust
MPH
rain 1hr
in
rain 24hr
in
rain mn
in
humidity
%
barometer
mb
20260906061229 49 180 0.0 0.0 0.00 0.00 0.00 93 1024.5
20260906060230 49 180 0.0 0.0 0.00 0.00 0.00 93 1024.5
20260906055702 49 180 0.0 0.0 0.00 0.00 0.00 93 1024.7
20260906054708 49 180 0.0 1.0 0.00 0.00 0.00 93 1024.7
20260906053229 48 180 0.0 0.0 0.00 0.00 0.00 93 1024.4
20260906052227 48 180 0.0 0.0 0.00 0.00 0.00 92 1024.4
20260906051226 48 180 0.0 0.0 0.00 0.00 0.00 92 1024.5
20260906050712 48 180 0.0 0.0 0.00 0.00 0.00 92 1024.5
20260906045222 49 180 0.0 0.0 0.00 0.00 0.00 92 1024.6
20260906044221 49 180 0.0 0.0 0.00 0.00 0.00 92 1024.6
20260906043223 49 180 0.0 0.0 0.00 0.00 0.00 92 1024.5
20260906042221 49 180 0.0 0.0 0.00 0.00 0.00 92 1024.5
20260906041219 49 180 0.0 0.0 0.00 0.00 0.00 91 1024.4
20260906040218 49 180 0.0 0.0 0.00 0.00 0.00 91 1024.4
20260906035218 50 180 0.0 0.0 0.00 0.00 0.00 91 1024.5
20260906034218 50 180 0.0 0.0 0.00 0.00 0.00 91 1024.5
20260906032219 50 180 0.0 0.0 0.00 0.00 0.00 91 1024.7
20260906031219 50 180 0.0 0.0 0.00 0.00 0.00 91 1024.8
20260906030219 50 180 0.0 2.0 0.00 0.00 0.00 91 1024.8
20260906025223 50 180 0.0 2.0 0.00 0.00 0.00 91 1024.8
20260906024215 49 180 0.0 0.0 0.00 0.00 0.00 91 1024.8
20260906023222 49 180 0.0 0.0 0.00 0.00 0.00 90 1024.9
20260906022218 50 180 0.0 0.0 0.00 0.00 0.00 91 1024.9
20260906021700 50 180 0.0 0.0 0.00 0.00 0.00 90 1024.6
20260906020213 50 180 0.0 0.0 0.00 0.00 0.00 90 1024.6
20260906015708 50 180 0.0 0.0 0.00 0.00 0.00 90 1024.5
20260906014234 50 180 0.0 0.0 0.00 0.00 0.00 90 1024.5
20260906013232 51 180 0.0 0.0 0.00 0.00 0.00 90 1024.4
20260906012233 51 180 0.0 0.0 0.00 0.00 0.00 89 1024.4
20260906011233 51 180 0.0 0.0 0.00 0.00 0.00 89 1024.9
20260906005704 51 248 0.0 1.0 0.00 0.00 0.00 89 1024.7
20260906004234 51 203 0.0 0.0 0.00 0.00 0.00 89 1024.7
20260906003233 51 225 0.0 2.0 0.00 0.00 0.00 89 1024.9
20260906002234 51 180 0.0 2.0 0.00 0.00 0.00 88 1024.9
20260906001719 51 180 0.0 0.0 0.00 0.00 0.00 88 1024.6
20260906000233 52 180 0.0 1.0 0.00 0.00 0.00 88 1024.6
20260905235231 52 270 0.0 0.0 0.00 0.00 0.00 88 1024.6
20260905234716 52 270 0.0 0.0 0.00 0.00 0.00 87 1024.6
20260905233233 53 180 0.0 0.0 0.00 0.00 0.00 87 1024.7
20260905232715 53 203 0.0 2.0 0.00 0.00 0.00 87 1024.7
20260905231233 53 203 0.0 0.0 0.00 0.00 0.00 86 1024.6
20260905230230 53 203 0.0 1.0 0.00 0.00 0.00 86 1024.6
20260905225227 53 203 0.0 0.0 0.00 0.00 0.00 86 1024.7
20260905224226 53 225 0.0 0.0 0.00 0.00 0.00 85 1024.7
20260905223226 54 248 0.0 0.0 0.00 0.00 0.00 85 1024.4
20260905222226 54 225 0.0 0.0 0.00 0.00 0.00 85 1024.4
20260905221222 54 203 0.0 0.0 0.00 0.00 0.00 84 1024.2
20260905220706 55 203 0.0 0.0 0.00 0.00 0.00 84 1024.2
20260905215222 55 270 0.0 2.0 0.00 0.00 0.00 83 1024.1
20260905214220 55 270 0.0 2.0 0.00 0.00 0.00 83 1024.1
20260905213220 55 180 0.0 3.0 0.00 0.00 0.00 82 1023.9
20260905212220 56 248 0.0 2.0 0.00 0.00 0.00 82 1023.9
20260905211226 56 248 0.0 0.0 0.00 0.00 0.00 82 1024.2
20260905210221 56 270 1.0 3.0 0.00 0.00 0.00 81 1024.2
20260905205212 56 270 0.0 3.0 0.00 0.00 0.00 81 1023.9
20260905204219 56 270 0.0 0.0 0.00 0.00 0.00 80 1023.9
20260905203841 56 270 0.0 2.0 0.00 0.00 0.00 80 1024.1
20260905202359 56 248 0.0 0.0 0.00 0.00 0.00 80 1024.1
20260905200401 58 248 0.0 0.0 0.00 0.00 0.00 79 1024.0
20260905195357 58 248 1.0 3.0 0.00 0.00 0.00 78 1023.7
20260905194400 58 248 1.0 1.0 0.00 0.00 0.00 78 1023.7
20260905193400 58 225 0.0 3.0 0.00 0.00 0.00 77 1023.6
20260905192842 59 270 0.0 2.0 0.00 0.00 0.00 77 1023.6
20260905191356 59 248 0.0 0.0 0.00 0.00 0.00 76 1023.5
20260905190355 60 270 0.0 0.0 0.00 0.00 0.00 76 1023.5
20260905185352 60 203 0.0 1.0 0.00 0.00 0.00 74 1023.9
20260905184354 60 315 1.0 3.0 0.00 0.00 0.00 74 1023.9
20260905183356 61 315 2.0 4.0 0.00 0.00 0.00 73 1023.2
20260905182355 61 248 2.0 5.0 0.00 0.00 0.00 73 1023.2
20260905181352 61 270 2.0 5.0 0.00 0.00 0.00 73 1023.1
20260905180353 62 293 1.0 3.0 0.00 0.00 0.00 71 1023.1
20260905175354 62 23 2.0 7.0 0.00 0.00 0.00 70 1023.2
20260905174353 63 270 2.0 4.0 0.00 0.00 0.00 69 1023.2
20260905173356 63 270 4.0 6.0 0.00 0.00 0.00 68 1023.1
20260905172834 64 68 4.0 11.0 0.00 0.00 0.00 66 1023.1
20260905170350 66 270 5.0 8.0 0.00 0.00 0.00 63 1022.8
20260905164825 67 270 6.0 11.0 0.00 0.00 0.00 61 1023.1
20260905163839 67 270 5.0 9.0 0.00 0.00 0.00 65 1022.2
20260905162818 66 293 5.0 9.0 0.00 0.00 0.00 63 1022.2
20260905161341 67 338 4.0 8.0 0.00 0.00 0.00 62 1022.1
20260905160340 67 180 5.0 12.0 0.00 0.00 0.00 64 1022.1
20260905155340 68 203 6.0 7.0 0.00 0.00 0.00 65 1021.6
20260905154341 66 248 4.0 10.0 0.00 0.00 0.00 69 1021.6
20260905153813 65 248 4.0 10.0 0.00 0.00 0.00 70 1021.4
20260905152340 66 270 3.0 8.0 0.00 0.00 0.00 72 1021.4
20260905151341 66 338 2.0 4.0 0.00 0.00 0.00 74 1021.2
20260905150345 65 270 3.0 3.0 0.00 0.00 0.00 75 1021.2
20260905145234 65 23 3.0 7.0 0.00 0.00 0.00 73 1020.9
20260905144235 66 338 3.0 9.0 0.00 0.00 0.00 69 1020.9
20260905143239 67 135 4.0 10.0 0.00 0.00 0.00 68 1020.8
20260905142235 67 225 5.0 10.0 0.00 0.00 0.00 67 1020.8
20260905141235 67 248 5.0 8.0 0.00 0.00 0.00 67 1020.7
20260905140236 67 270 6.0 11.0 0.00 0.00 0.00 67 1020.7
20260905135232 67 248 7.0 13.0 0.00 0.00 0.00 68 1020.6
20260905134234 67 270 7.0 15.0 0.00 0.00 0.00 67 1020.6
20260905133237 68 45 6.0 11.0 0.00 0.00 0.00 66 1020.2
20260905132233 69 248 6.0 11.0 0.00 0.00 0.00 65 1020.2
20260905131234 70 270 7.0 12.0 0.00 0.00 0.00 65 1020.2
20260905130237 69 315 8.0 15.0 0.00 0.00 0.00 64 1020.2
20260905125230 69 270 6.0 13.0 0.00 0.00 0.00 65 1020.0
20260905124231 67 270 7.0 16.0 0.00 0.00 0.00 67 1020.0
20260905123235 67 270 5.0 12.0 0.00 0.00 0.00 66 1019.9
20260905122711 67 225 7.0 12.0 0.00 0.00 0.00 68 1019.9
20260905121235 67 270 6.0 12.0 0.00 0.00 0.00 68 1019.4
20260905115234 69 270 4.0 13.0 0.00 0.00 0.00 69 1019.4
20260905114233 66 68 5.0 10.0 0.00 0.00 0.00 71 1019.4
20260905113232 66 180 4.0 8.0 0.00 0.00 0.00 69 1019.1
20260905112233 67 180 4.0 8.0 0.00 0.00 0.00 68 1019.1
20260905111237 67 270 4.0 11.0 0.00 0.00 0.00 68 1018.8
20260905110246 68 45 4.0 9.0 0.00 0.00 0.00 68 1018.8
20260905105233 67 248 4.0 8.0 0.00 0.00 0.00 68 1018.7
20260905104236 67 270 4.0 8.0 0.00 0.00 0.00 68 1018.7
20260905103226 69 315 7.0 0.0 0.00 0.00 0.00 68 1018.1
20260905102335 70 248 7.0 11.0 0.00 0.00 0.00 68 1018.1
20260905101335 69 225 7.0 16.0 0.00 0.00 0.00 69 1018.0
20260905100332 69 315 7.0 16.0 0.00 0.00 0.00 68 1018.0
20260905095334 68 248 6.0 13.0 0.00 0.00 0.00 71 1017.5
20260905094334 67 248 6.0 12.0 0.00 0.00 0.00 71 1017.5
20260905093333 68 248 7.0 13.0 0.00 0.00 0.00 68 1017.1
20260905092334 71 338 8.0 13.0 0.00 0.00 0.00 67 1017.1
20260905091331 70 270 8.0 13.0 0.00 0.00 0.00 68 1017.1
20260905090332 69 180 6.0 13.0 0.00 0.00 0.00 73 1017.1
20260905085334 68 225 7.0 16.0 0.00 0.00 0.00 73 1016.9
20260905084332 67 180 6.0 13.0 0.00 0.00 0.00 78 1016.9
20260905083332 66 248 8.0 15.0 0.00 0.00 0.00 77 1016.3
20260905082335 67 248 6.0 12.0 0.00 0.00 0.00 75 1016.3
20260905081336 68 203 5.0 11.0 0.00 0.00 0.00 76 1016.5
20260905080331 68 270 6.0 12.0 0.00 0.00 0.00 78 1016.5
20260905075330 67 270 6.0 13.0 0.00 0.00 0.00 78 1016.3
20260905074330 66 293 6.0 11.0 0.00 0.00 0.00 80 1016.3
20260905073810 65 203 6.0 15.0 0.00 0.00 0.00 82 1016.1
20260905072325 63 180 5.0 15.0 0.00 0.00 0.00 85 1016.1
20260905071308 60 293 4.0 7.0 0.00 0.00 0.00 87 1016.1
20260905070307 60 248 4.0 6.0 0.00 0.00 0.00 87 1016.1
20260905065307 60 270 5.0 7.0 0.00 0.00 0.00 87 1016.0
20260905064305 59 270 4.0 9.0 0.00 0.00 0.00 88 1016.0
20260905063302 58 180 5.0 13.0 0.00 0.00 0.00 88 1015.8
20260905062254 58 248 5.0 11.0 0.00 0.00 0.00 89 1015.8